Weather History for Crossville, TN

Change the Weather History Date:

Monday, December 31, 2012

  Actual Average Record
Temperature  
Mean Temperature 33 °F 36 °F  
Max Temperature 42 °F 45 °F 69 °F (1984)
Min Temperature 23 °F 28 °F 3 °F (1976)
Degree Days  
Heating Degree Days 32    
Month to date heating degree days 647  
Since 1 July heating degree days 1612  
Cooling Degree Days 0    
Month to date cooling degree days 0  
Year to date cooling degree days 1156  
Moisture  
Dew Point 24 °F    
Average Humidity 68    
Maximum Humidity 96    
Minimum Humidity 39    
Precipitation  
Precipitation T in 0.14 in 1.51 in (1963)
Month to date precipitation 4.95 4.95  
Year to date precipitation 46.72 55.09  
Sea Level Pressure  
Sea Level Pressure 30.24 in    
Wind  
Wind Speed 2 mph (South)    
Max Wind Speed 10 mph    
Max Gust Speed 16 mph    
Visibility 10 miles    
Events Rain    
T = Trace of Precipitation, MM = Missing Value Source: NWS Daily Summary

Daily Weather History Graph

Daily Weather History Graph

Search for Another Location

Airport:

Trip Planner

Search our weather history database for the weather conditions in past years. The results will help you decide how hot, cold, wet, or windy it might be!

Date:

Astronomy

Dec. 31, 2012 Rise Set
Actual Time 6:50 AM CST 4:36 PM CST
Civil Twilight 6:22 AM CST 5:05 PM CST
Nautical Twilight 5:50 AM CST 5:37 PM CST
Astronomical Twilight 5:19 AM CST 6:08 PM CST
Moon 7:59 PM CST (12/31) 8:38 AM CST (12/31)
Length of Visible Light 10h 42m
Length of Day
9h 45m
Waning Gibbous, 90% of the Moon is Illuminated
Dec 31
Waning Gibbous
Jan 4
Last Quarter
Jan 11
New
Jan 18
First Quarter
Jan 26
Full

Hourly Weather History & Observations

Time (CST) Temp. Windchill Dew Point Humidity Pressure Visibility Wind Dir Wind Speed Gust Speed Precip Events Conditions
12:53 AM 23.0 °F - 19.9 °F 88% 30.36 in 10.0 mi Calm Calm - N/A   Clear
1:53 AM 24.1 °F - 21.0 °F 88% 30.36 in 10.0 mi Calm Calm - N/A   Clear
2:53 AM 25.0 °F - 21.9 °F 88% 30.35 in 10.0 mi Calm Calm - N/A   Clear
3:53 AM 26.1 °F - 23.0 °F 88% 30.34 in 10.0 mi Calm Calm - N/A   Clear
4:53 AM 30.0 °F - 19.9 °F 66% 30.34 in 10.0 mi Calm Calm - N/A   Clear
5:53 AM 30.0 °F - 21.0 °F 69% 30.35 in 10.0 mi Calm Calm - N/A   Mostly Cloudy
6:53 AM 30.0 °F - 21.9 °F 72% 30.33 in 10.0 mi Calm Calm - N/A   Partly Cloudy
7:53 AM 33.1 °F 28.7 °F 19.9 °F 59% 30.33 in 10.0 mi Variable 4.6 mph - N/A   Clear
8:53 AM 35.1 °F - 21.0 °F 57% 30.34 in 10.0 mi Calm Calm - N/A   Clear
9:53 AM 37.0 °F 34.5 °F 21.0 °F 52% 30.35 in 10.0 mi Variable 3.5 mph - N/A   Clear
10:53 AM 39.0 °F 35.7 °F 21.0 °F 49% 30.30 in 10.0 mi South 4.6 mph - N/A   Mostly Cloudy
11:53 AM 42.1 °F 37.7 °F 19.0 °F 40% 30.26 in 10.0 mi Variable 6.9 mph - N/A   Mostly Cloudy
12:53 PM 41.0 °F - 21.0 °F 45% 30.25 in 10.0 mi Calm Calm - N/A   Overcast
1:53 PM 41.0 °F - 23.0 °F 49% 30.21 in 10.0 mi Calm Calm - N/A   Overcast
2:53 PM 39.0 °F - 26.1 °F 60% 30.23 in 10.0 mi Calm Calm - N/A   Overcast
3:53 PM 39.0 °F 36.8 °F 25.0 °F 57% 30.21 in 10.0 mi SSE 3.5 mph - N/A   Overcast
4:53 PM 39.0 °F 36.8 °F 25.0 °F 57% 30.19 in 10.0 mi South 3.5 mph - N/A   Clear
5:53 PM 39.0 °F - 26.1 °F 60% 30.18 in 10.0 mi Calm Calm - N/A   Partly Cloudy
6:53 PM 39.9 °F 35.1 °F 26.1 °F 58% 30.16 in 10.0 mi South 6.9 mph - N/A   Overcast
7:53 PM 39.9 °F 36.7 °F 26.1 °F 58% 30.14 in 10.0 mi Variable 4.6 mph - N/A   Overcast
8:24 PM 41.0 °F 36.4 °F 26.6 °F 57% 30.11 in 10.0 mi SSW 6.9 mph - N/A   Overcast
8:53 PM 41.0 °F 38.0 °F 28.0 °F 60% 30.12 in 10.0 mi Variable 4.6 mph - N/A   Overcast
9:53 PM 41.0 °F - 30.0 °F 65% 30.11 in 10.0 mi Calm Calm - N/A   Overcast
10:01 PM 41.0 °F 39.0 °F 30.2 °F 65% 30.08 in 10.0 mi Variable 3.5 mph - N/A   Overcast
10:53 PM 41.0 °F 38.0 °F 30.9 °F 67% 30.08 in 10.0 mi South 4.6 mph - N/A   Overcast
11:53 PM 41.0 °F - 34.0 °F 76% 30.06 in 10.0 mi Calm Calm - 0.00 in Rain Light Rain